GLOBALSTAR M085 [+]

Last updated on Fri Dec 29 2023 00:02:56 GMT+0000 (Coordinated Universal Time)

1 37742U 11033D 23361.67503000 -.00000083 00000+0 11857-3 0 9993 2 37742 51.9882 61.0700 0000764 129.9815 47.2265 12.62266103575815
UTC large
Height (km)
Speed (km/s)
/
Latitude / Longitude
Inclination (degrees)
Orbital Period (minutes)
Azimuth
Elevation
Range (km)
Doppler Factor

Next 0 passes for location: London (51.5072 / 0.1276)

Sorry there are no passes over London.